Погода в Нурате

Погода в Нурате : погода сейчас, прогноз погоды и архив. Всё, что Вы хотите узнать о погоде в Нурате!

Хотите узнать прогноз погоды в Нурате? Тогда Вам сюда: Погода в Нурате

Поиск расширенной информации на нашем сайте:

Другие новости

Новости СМИ2

Главная страница сайта

Новости сайта

03.07.2017

Напоминаем, что на нашем специализированном сайте Метеоцентр.Азия вы можете получить высокодетализированные автоматические прогнозы погоды по пунктам России, СНГ и мира в авиационном формате (включающие направление и скорость ветра, видимость, явления погоды, количество и форму облачности, нижнюю и верхнюю границу облачности).

Рекомендуем: Создание радиоуправляемых моделей самостоятельно Modelizd.ru

Погода в Нурате - сегодня

Время (UTC), дата Ветер
(°,м/с) 
Видим.   Явления Облачность Т
(°С)
Тd
(°С)
f(%) Тe
(°С)
Pmin
(гПа)
dP
(гПа)
Po
(мм)
O2
(г/м3)
Тmin Tmax R s Состояние
почвы
15 21.09.17 тихо ()   н/о    ясно 
+20.8 +7.1 41 +21  1010.9  0.1  717  267    +28.8       
18 21.09.17 тихо ()   н/о    ясно 
+16 +6.1 52 +16  1012  0.1  717  272    +28.8       
21 21.09.17 тихо ()   н/о    ясно 
+13.7 +3.8 51 +14  1011.7  -0.7  716  274           
00 22.09.17 тихо ()   н/о    ясно 
+11.9 +3.2 55 +12  1012.6  0.5  717  276           
03 22.09.17 тихо ()   20000 м    ясно 
+13.8 +0.9 41 +14  1012.5  0.4  717  275  +11.7        сухая 
06 22.09.17 тихо ()   20000 м    ясно 
+25.7 +5.1 27 +26  1011  0.7  718  263  +11.7         
09 22.09.17 тихо ()   20000 м    ясно 
+30.5 +6.8 23 +31  1010.5  -1.4  717  259           
12 22.09.17 тихо ()   20000 м    ясно 
+29.7 +6.8 24 +30  1008.1  -0.7  716  259           
15 22.09.17 тихо ()   н/о    ясно 
+20.2 +7.6 44 +20  1010.3  0.4  716  267    +31.4       
18 22.09.17 тихо ()   н/о    ясно 
+16.5 +3.8 43 +17  1011.3  0.3  717  272    +31.4       
21 22.09.17 тихо ()   н/о    ясно 
+14 +5.6 57 +14  1011.7  -0.1  716  274           
00 23.09.17 тихо ()   н/о    ясно 
+12.2 +5.6 64 +12  1012.5  0.3  717  275           
03 23.09.17 тихо ()   20000 м    ясно 
+15.4 +4.3 47 +15  1013  1.2  718  273  +12        сухая 
06 23.09.17 тихо ()   20000 м    ясно 
+29.7 +6.2 23 +30  1012  1.7  719  260  +12         
09 23.09.17 030 (СВ) 20000 м    ясно 
+30.8 +7.7 24 +31  1013.2  1.2  720  259           
12 23.09.17 тихо ()   20000 м    ясно 
+30.3 +7.3 24 +30  1012.3  -0.9  719  260           
15 23.09.17 тихо ()   н/о    ясно 
+20.5 +6.2 39 +21  1015.2  720  269    +31.4       
18 23.09.17 030 (СВ) н/о    ясно 
+22.9 +6.8 35 +23  1016.1  1.3  721  267    +31.4       
21 23.09.17 040 (СВ) н/о    ясно 
+18.4 +7.1 48 +19  1017.1  0.1  721  271           
00 24.09.17 тихо ()   н/о    ясно 
+14.5 +5 53 +15  1017.7  -0.2  721  275           
03 24.09.17 тихо ()   20000 м    ясно 
+13.8 +2.5 46 +14  1018.8  722  276  +13.5         
06 24.09.17 тихо ()   20000 м    ясно 
+22.7 +7.8 38 +23  1017.1  722  267  +13.5         
09 24.09.17 030 (СВ) 20000 м    ясно 
+25.2 +6.8 31 +25  1016.5  -0.2  721  265           
12 24.09.17 030 (СВ) 20000 м    ясно 
+24.1 +7.6 35 +24  1016.8  0.1  721  266           
15 24.09.17 тихо ()   н/о    ясно 
+17.6 +5.1 44 +18  1019.1  722  273    +25.8       
Время (UTC), дата Ветер
(°,м/с) 
Видим.   Явления Облачность Т
(°С)
Тd
(°С)
f(%) Тe
(°С)
Pmin
(гПа)
dP
(гПа)
Po
(мм)
O2
(г/м3)
Тmin Tmax R s Состояние
почвы

Для получения пояснительной информации подведите курсор к названию столбца.

ПОГОДА в Нурате - архив

Всё, что Вы хотите узнать о погоде в Нурате - удобно и подробно!

Выберите нужную дату (начиная с 1 января 2015* года) и нажмите кнопку "Найти".
Будут отображены архивные сводки погоды по пункту Нурата, начиная с указанной даты.


Отображать данные в формате CSV (для использования в таблицах Excel)


Внимание! Наш архив погоды предназначен исключительно для личного некоммерческого использования в познавательных целях. Если Вам необходимы официальные справки о состоянии погоды (для производственных, юридических, коммерческих и т.п. целей), обращайтесь в органы Росгидромета.

*Примечание: данная дата относится к архиву по метеостанциям СССР (Россия, СНГ, Балтия).
Архив по метеостанциям Зарубежной Европы и Азии (кроме Китая) хранится 10 дней, по другим регионам земного шара (Китай, Африка, Америка, Австралия, Океания) - 1 день.

Нурата - район местоположения метеостанции


Название, широта, долгота, высота метеостанции:
Нурата 40.6°ш. 65.7°д. 485 м над ур. моря [Узбекистан]

Дополнительная информация

В oтличие oт бoльшинства пoгoдных сайтoв мы публикуем пoдрoбную метеoинфoрмацию в детальнoм прoфессиoнальнoм фoрмате.

Характеристики температуры и влажнoсти вoздуха измеряются на высoте 2 м в тени вдали oт зданий и деревьев.
Скoрoсть ветра измеряется на высoте 10 м (на урoвне рoста челoвека скoрoсть ветра ниже в 1.5-2 раза). Если метеoстанция нахoдится в гoрoде или в лесу, тo скoрoсть ветра занижена на 2-4 м/с пo сравнению с oткрытым местoм. Скoрoсть ветра над акватoриями крупных рек и oзёр, а также на вершинах хoлмoв на 2-5 м/с выше, чем в oбычных услoвиях.
Атмoсфернoе давление в разных тoчках местнoсти мoжет значительнo oтличаться oт давления на метеoстанции, в зависимoсти oт услoвий рельефа (при пoдъёме на 10 м давление пoнижается примернo на 1 мм рт.ст.).